This is the latest recevied weather packets stored in our database for station/object KM4RT-13. If no packets are shown the sender has not sent any weather packets the latest 10 day(s).
| Time | Temp. | Humidity | Pressure | Rain* | Wind** | Luminosity | Snow |
|---|---|---|---|---|---|---|---|
| 1777863004 | 16.11° C | 60% | 1013.1 hPa | 0 mm | - | 0 W/m² | - |
| 1777862702 | 16.67° C | 60% | 1012.9 hPa | 0 mm | - | 0 W/m² | - |
| 1777862399 | 16.67° C | 58% | 1013 hPa | 0 mm | - | 0 W/m² | - |
| 1777862095 | 16.67° C | 58% | 1013.1 hPa | 0 mm | - | 0 W/m² | - |
| 1777861791 | 16.67° C | 57% | 1013.1 hPa | 0 mm | - | 0 W/m² | - |
| 1777861487 | 16.67° C | 56% | 1012.8 hPa | 0 mm | - | 0 W/m² | - |
| 1777861184 | 16.67° C | 56% | 1012.8 hPa | 0 mm | - | 0 W/m² | - |
| 1777860881 | 16.67° C | 56% | 1012.8 hPa | 0 mm | - | 0 W/m² | - |
| 1777860578 | 17.22° C | 56% | 1012.7 hPa | 0 mm | - | 0 W/m² | - |
| 1777860275 | 16.67° C | 56% | 1012.7 hPa | 0 mm | - | 0 W/m² | - |
| 1777859972 | 16.67° C | 59% | 1012.7 hPa | 0 mm | - | 0 W/m² | - |
| 1777859667 | 16.67° C | 57% | 1012.8 hPa | 0 mm | - | 0 W/m² | - |
| 1777859363 | 17.78° C | 53% | 1012.5 hPa | 0 mm | - | 0 W/m² | - |
| 1777859060 | 17.78° C | 51% | 1012.6 hPa | 0 mm | - | 0 W/m² | - |
| 1777858757 | 17.78° C | 52% | 1012.6 hPa | 0 mm | - | 0 W/m² | - |
| 1777858455 | 17.78° C | 51% | 1012.7 hPa | 0 mm | - | 0 W/m² | - |
| 1777858151 | 17.78° C | 52% | 1012.7 hPa | 0 mm | - | 0 W/m² | - |
| 1777857849 | 17.78° C | 52% | 1012.5 hPa | 0 mm | - | 0 W/m² | - |
| 1777857546 | 17.78° C | 53% | 1012.6 hPa | 0 mm | - | 0 W/m² | - |
| 1777857243 | 17.78° C | 53% | 1012.5 hPa | 0 mm | - | 0 W/m² | - |
| 1777856939 | 18.33° C | 51% | 1012.9 hPa | 0 mm | - | 0 W/m² | - |
| 1777856634 | 18.89° C | 50% | 1012.7 hPa | 0 mm | - | 0 W/m² | - |
| 1777856325 | 18.89° C | 48% | 1012.5 hPa | 0 mm | - | 0 W/m² | - |
| 1777856022 | 19.44° C | 47% | 1012.6 hPa | 0 mm | - | 1 W/m² | - |
| 1777855720 | 19.44° C | 47% | 1012.6 hPa | 0 mm | - | 2 W/m² | - |
* Rain latest hour (hover to see other rain measurements)
** Current wind speed in m/s (hover to see current wind gust speed)